Weather History for Ellensburg, WA

Change the Weather History Date:

Friday, April 5, 2013

  Actual Average (KYKM) Record (KYKM)
Temperature  
Mean Temperature 52 °F 47 °F  
Max Temperature 64 °F 61 °F 78 °F (1952)
Min Temperature 41 °F 33 °F 22 °F (1975)
Degree Days  
Heating Degree Days 12 18  
Month to date heating degree days 90  
Since 1 July heating degree days 5294  
Cooling Degree Days 0 0  
Month to date cooling degree days 0  
Year to date cooling degree days 0  
Growing Degree Days 2 (Base 50)    
Moisture  
Dew Point 41 °F    
Average Humidity 76    
Maximum Humidity 93    
Minimum Humidity 48    
Precipitation  
Precipitation 0.02 in 0.02 in 0.15 in (1963)
Month to date precipitation 0.08  
Year to date precipitation 2.62  
Snow  
Snow 0.00 in 0.00 in 0.00 in (2002)
Month to date snowfall 0.0  
Year to date snowfall 8.6  
Since 1 July snowfall 21.6  
Snow Depth -    
Sea Level Pressure  
Sea Level Pressure 29.79 in    
Wind  
Wind Speed 4 mph (NNW)    
Max Wind Speed 14 mph    
Max Gust Speed -    
Visibility 6 miles    
Events Fog , Rain    
T = Trace of Precipitation, MM = Missing Value Source: NWS Daily Summary

Daily Weather History Graph

Daily Weather History Graph

Search for Another Location

Airport:

Trip Planner

Search our weather history database for the weather conditions in past years. The results will help you decide how hot, cold, wet, or windy it might be!

Date:

Astronomy

Apr. 05, 2013 Rise Set
Actual Time 6:32 AM PDT 7:37 PM PDT
Civil Twilight 6:01 AM PDT 8:08 PM PDT
Nautical Twilight 5:24 AM PDT 8:46 PM PDT
Astronomical Twilight 4:44 AM PDT 9:25 PM PDT
Moon 4:00 AM PDT (4/5) 2:51 PM PDT (4/5)
Length of Visible Light 14h 07m
Length of Day
13h 04m
Waning Crescent, 22% of the Moon is Illuminated
Apr 5
Waning Crescent
Apr 10
New
Apr 18
First Quarter
Apr 25
Full
May 2
Last Quarter

Hourly Weather History & Observations

Time (PDT) Temp. Windchill Dew Point Humidity Pressure Visibility Wind Dir Wind Speed Gust Speed Precip Events Conditions
12:33 AM 42.8 °F - 39.2 °F 87% 29.75 in 6.0 mi Calm Calm - N/A   Mostly Cloudy
12:53 AM 42.1 °F - 37.9 °F 85% 29.76 in 4.0 mi Calm Calm - N/A   Scattered Clouds
1:08 AM 41.0 °F 37.1 °F 37.4 °F 87% 29.76 in 1.5 mi SE 5.8 mph - N/A   Partly Cloudy
1:10 AM 41.0 °F 37.1 °F 37.4 °F 87% 29.76 in 0.8 mi SE 5.8 mph - N/A   Mist
1:53 AM 44.1 °F 42.5 °F 41.0 °F 89% 29.77 in 0.2 mi SSE 3.5 mph - N/A Fog Fog
2:53 AM 45.0 °F 41.8 °F 42.1 °F 90% 29.76 in 0.2 mi East 5.8 mph - 0.01 in Fog Fog
3:53 AM 45.0 °F - 42.1 °F 90% 29.77 in 0.2 mi Calm Calm - N/A Fog Fog
4:27 AM 44.6 °F 42.2 °F 42.8 °F 93% 29.76 in 0.5 mi NE 4.6 mph - 0.00 in Fog Fog
4:31 AM 44.6 °F 43.1 °F 42.8 °F 93% 29.76 in 1.2 mi ENE 3.5 mph - 0.00 in   Overcast
4:44 AM 44.6 °F - 42.8 °F 93% 29.76 in 0.8 mi Calm Calm - 0.00 in   Overcast
4:53 AM 44.1 °F - 41.0 °F 89% 29.76 in 0.2 mi Calm Calm - 0.00 in Fog Fog
5:53 AM 43.0 °F - 39.9 °F 89% 29.77 in 0.2 mi Calm Calm - N/A Fog Fog
6:06 AM 42.8 °F 40.1 °F 39.2 °F 87% 29.76 in 0.2 mi NW 4.6 mph - N/A Fog Fog
6:30 AM 44.6 °F 42.2 °F 39.2 °F 81% 29.76 in 1.2 mi NW 4.6 mph - N/A   Overcast
6:47 AM 44.6 °F 42.2 °F 39.2 °F 81% 29.77 in 2.0 mi WNW 4.6 mph - N/A   Overcast
6:53 AM 44.1 °F 40.8 °F 39.9 °F 85% 29.78 in 2.5 mi WNW 5.8 mph - N/A   Overcast
7:49 AM 46.4 °F 41.9 °F 41.0 °F 81% 29.78 in 8.0 mi WNW 9.2 mph - N/A   Overcast
7:53 AM 46.0 °F 41.0 °F 41.0 °F 83% 29.79 in 10.0 mi WNW 10.4 mph - N/A   Overcast
8:53 AM 50.0 °F - 41.0 °F 71% 29.81 in 10.0 mi NW 11.5 mph - N/A   Overcast
9:53 AM 53.1 °F - 41.0 °F 64% 29.81 in 10.0 mi NNW 10.4 mph - N/A   Mostly Cloudy
10:53 AM 57.0 °F - 41.0 °F 55% 29.83 in 10.0 mi NW 3.5 mph - N/A   Scattered Clouds
11:53 AM 60.1 °F - 43.0 °F 53% 29.83 in 10.0 mi NW 8.1 mph - N/A   Overcast
12:53 PM 62.1 °F - 42.1 °F 48% 29.83 in 10.0 mi Calm Calm - N/A   Partly Cloudy
1:53 PM 64.0 °F - 44.1 °F 48% 29.82 in 10.0 mi NNW 11.5 mph - 0.00 in   Mostly Cloudy
2:53 PM 61.0 °F - 41.0 °F 48% 29.83 in 10.0 mi NW 12.7 mph - N/A   Overcast
3:53 PM 59.0 °F - 42.1 °F 53% 29.84 in 10.0 mi NW 13.8 mph - N/A   Mostly Cloudy
4:53 PM 57.0 °F - 41.0 °F 55% 29.84 in 10.0 mi NW 12.7 mph - N/A   Mostly Cloudy
5:53 PM 55.0 °F - 44.1 °F 67% 29.85 in 10.0 mi WNW 6.9 mph - 0.00 in Rain Light Rain
6:53 PM 53.1 °F - 43.0 °F 69% 29.84 in 10.0 mi WNW 8.1 mph - 0.00 in Rain Light Rain
7:53 PM 51.1 °F - 43.0 °F 74% 29.82 in 10.0 mi Calm Calm - 0.01 in Rain Light Rain
8:53 PM 51.1 °F - 42.1 °F 71% 29.81 in 10.0 mi SE 3.5 mph - 0.00 in   Overcast
9:53 PM 48.0 °F - 43.0 °F 83% 29.81 in 10.0 mi ENE 4.6 mph - N/A   Mostly Cloudy
10:53 PM 46.0 °F 42.5 °F 41.0 °F 83% 29.80 in 10.0 mi East 6.9 mph - N/A   Mostly Cloudy
11:53 PM 45.0 °F - 37.9 °F 76% 29.80 in 10.0 mi Calm Calm - N/A   Clear